Location: Guferjoch
(46.7462°N, 8.4506°E)
Time: 00:11:55
(UTC+00:00)

CZ-2D R/B - Pass Details

Date: 14 July 2020
Orbit: 792 x 845 km, 98.7° (Epoch: 03 August)

Event Time Altitude Azimuth Distance (km) Brightness Sun altitude
Rises 02:19:16 0° 5° (N) 3,345 6.3 -11.9°
Reaches altitude 10° 02:21:52 10° 354° (N) 2,418 5.2 -11.6°
Maximum altitude 02:26:21 28° 297° (WNW) 1,506 3.4 -11.1°
Enters shadow 02:30:27 12° 243° (WSW) 2,307 3.9 -10.7°
